Main page
METAR-TAF:

METAR-TAF

Airports :

Oil platform

K13-a, Netherlands

latitude: 53-13-04N, longitude: 3-13-13E, elevation: 31 m

Current weather observation

The report was made 10 minutes ago, at 17:55 UTC
Wind 27 kt from the West/Southwest
Temperature 7°C
Humidity 81%
Pressure 1017 hPa

METAR: EHJR 291755Z AUTO 25027KT //// // ///////// 07/04 Q1017 RE// W08/H21

Time: 19:05 (18:05 UTC)


TAF: missing

Weather observations and forecasts of more than 4000 airports (METAR and TAF reports).

The available stations are represented by yellow and red dots on the map.

Hover mouse over dot to see the name of the station.

Then click to see weather observations and forecasts.

To change the map : click on the green buttons with a black cross to zoom in, on the green button with a dash to zoom out, or on the green arrows for adjacent maps.


METAR-TAF: